Regional Weather Roundup
Issued by NWS

Home | Current Version | Previous Version | Graphics & Text | Print | Product List | Glossary On
Versions: 1 2 3 4 5 6 7 8 9 10 11 12 13 14 15 16 17 18 19 20 21 22 23 24 25 26 27 28 29 30 31 32 33 34 35 36 37 38 39 40 41 42 43 44 45 46 47 48 49 50
000
ASUS45 KBOI 251610
RWRID
WEATHER ROUNDUP FOR IDAHO
NATIONAL WEATHER SERVICE BOISE ID
900 AM MST THU DEC 25 2014

NOTE: "FAIR" INDICATES FEW OR NO CLOUDS BELOW 12000 FEET
WITH NO SIGNIFICANT WEATHER AND/OR OBSTRUCTIONS TO VISIBILITY

IDZ012-014-251700-
SOUTHWEST IDAHO


CITY           SKY/WX    TMP DP  RH WIND       PRES   REMARKS
BOISE          MOCLDY    29  22  75 NW17      29.85R WCI  17
CALDWELL       MOCLDY    32  19  59 SW23      29.91R WCI  19
MOUNTAIN HOME  CLOUDY    30  24  78 NW31G40   29.77R WCI  14
$$

IDZ016-017-251700-
SOUTHCENTRAL IDAHO


CITY           SKY/WX    TMP DP  RH WIND       PRES   REMARKS
JEROME         CLOUDY    26  22  84 W23G33    29.66R WCI  11
TWIN FALLS     HVY SNOW  28  23  81 W36G45    29.67R VSB 1/4 WCI  11
$$

IDZ019>023-251700-
SOUTHEAST IDAHO


CITY           SKY/WX    TMP DP  RH WIND       PRES   REMARKS
IDAHO FALLS    LGT SNOW  28  26  92 N17G25    29.56R VSB 3/4 WCI  16
POCATELLO      SNOW      27  27 100 W14       29.61R VSB 1/2 WCI  16
REXBURG        LGT SNOW  26  24  92 N15       29.55R FOG     WCI  14
$$

IDZ006-010-011-018-031-032-251700-
CENTRAL IDAHO MOUNTAINS


CITY           SKY/WX    TMP DP  RH WIND       PRES   REMARKS
MCCALL         CLOUDY    23  18  81 NW13      29.82R WCI  11
HAILEY         CLOUDY    32  16  51 MISG      29.60R
STANLEY          N/A     23  13  65 NW10      29.69R WCI  12
SALMON         CLOUDY    30  16  55 N13       29.76R WCI  20
CHALLIS        CLOUDY    26  20  77 N8        29.71R WCI  18
$$

IDZ002-004-006-007-026-251700-
NORTHERN IDAHO


CITY           SKY/WX    TMP DP  RH WIND       PRES   REMARKS
LEWISTON       CLEAR     33  26  75 SE3       30.03R
LOWELL           N/A     36  32  85 CALM      30.00R
COEUR D`ALENE  CLOUDY    28  27  93 SW6       29.97R VSB<1/4 WCI  22
MULLAN PASS    HAZE      23  18  81 NW3       29.80R VSB 1/4
$$


USA.gov is the U.S. government's official web portal to all federal, state and local government web resources and services.